SCP
0 0 0 0 0 0 0 0 0 0 0 0 0 0 0 0 0 0 0 0 0 0 0 0 0 0 0 0 0 0 0 0 0 0 0 0 0 0 0 0 0 0 0
0 0 0 0 0 0 0 0 0 0 0 0 0 0 0 0 0 0 0 0 0 0 0 0 0 0 0 0 0 0 0 0 0 0 0 0 0 0 0 0 0 0 0
0 0 0 0 0 0 0 0 0 0 0 0 0 0 0 0 0 0 0 0 0 0 0 0 0 0 0 0 0 0 0 0 0 0 0 0 0 0 0 0 0 0 0
0 0 0 0 0 0 0 0 0 0 0 0 0 0 0 0 0 0 0 0 0 0 0 0 0 0 0 0 0 0 0 0 0 0 0 0 0 0 0 0 0 0 0
0 0 0 0 0 0 0 0 0 0 0 0 0 0 0 0 0 0 0 0 0 0 0 0 0 0 0 0 0 0 0 0 0 0 0 0 0 0 0 0 0 0 0
0 0 0 0 0 0 0 0 0 0 0 0 0 0 0 0 0 0 0 0 0 0 0 0 0 0 0 0 0 0 0 0 0 0 0 0 0 0 0 0 0 0 0
0 0 0 0 0 0 0 0 0 0 0 0 0 0 0 0 0 0 0 0 0 0 0 0 0 0 0 0 0 0 0 0 0 0 0 0 0 0 0 0 0 0 0
0 0 0 0 0 0 0 0 0 0 0 0 0 0 0 0 0 0 0 0 0 0 0 0 0 0 0 0 0 0 0 0 0 0 0 0 0 0 0 0 0 0 0
0 0 0 0 0 0 0 0 0 0 0 0 0 0 0 0 0 0 0 0 0 0 0 0 0 0 0 0 0 0 0 0 0 0 0 0 0 0 0 0 0 0 0
0 0 0 0 0 0 0 0 0 0 0 0 0 0 0 0 0 0 0 0 0 0 0 0 0 0 0 0 0 0 0 0 0 0 0 0 0 0 0 0 0 0 0
0 0 0 0 0 0 0 0 0 0 0 0 0 0 0 0 0 0 0 0 0 0 0 0 0 0 0 0 0 0 0 0 0 0 0 0 0 0 0 0 0 0 0
0 0 0 0 0 0 0 0 0 0 0 0 0 0 0 0 0 0 0 0 0 0 0 0 0 0 0 0 0 0 0 0 0 0 0 0 0 0 0 0 0 0 0
0 0 0 0 0 0 0 0 0 0 0 0 0 0 0 0 0 0 0 0 0 0 0 0 0 0 0 0 0 0 0 0 0 0 0 0 0 0 0 0 0 0 0
0 0 0 0 0 0 0 0 0 0 0 0 0 0 0 0 0 0 0 0 0 0 0 0 0 0 0 0 0 0 0 0 0 0 0 0 0 0 0 0 0 0 0
0 0 0 0 0 0 0 0 0 0 0 0 0 0 0 0 0 0 0 0 0 0 0 0 0 0 0 0 0 0 0 0 0 0 0 0 0 0 0 0 0 0 0
0 0 0 0 0 0 0 1 1 0 0 0 0 0 0 0 0 0 0 0 0 0 0 0 0 0 0 0 0 0 0 0 0 0 0 0 0 0 0 0 0 0 0
0 0 0 0 0 0 0 0 0 0 0 0 0 0 0 0 0 0 0 0 0 0 0 0 0 0 0 0 0 0 0 0 0 0 0 0 0 0 0 0 0 0 0
0 0 0 0 0 0 0 0 0 0 0 0 0 0 0 0 0 0 0 0 0 0 0 0 0 0 0 0 0 0 0 0 0 0 0 0 0 0 0 0 0 0 0
0 0 1 1 0 0 0 0 0 0 0 0 0 0 0 0 1 1 1 0 0 0 0 0 0 0 0 0 0 0 0 0 0 0 0 0 0 0 0 0 0 0 0
1 1 1 1 1 1 1 1 1 1 1 1 1 1 1 1 1 1 1 1 1 1 1 1 0 0 0 1 1 0 0 0 0 0 0 0 0 0 0 0 0 0 0
1 1 1 1 1 1 1 1 1 1 1 1 1 1 1 1 1 1 0 1 1 1 1 1 1 1 1 1 1 1 0 0 0 0 0 0 0 0 0 0 0 0 0
1 1 1 1 1 1 1 1 1 1 1 1 1 1 1 1 0 0 0 0 0 1 1 1 1 1 1 1 1 1 1 1 1 1 0 0 0 0 0 0 0 0 0
1 1 1 1 1 1 0 0 0 1 1 1 1 1 1 1 1 0 0 0 0 0 0 1 1 1 1 1 1 1 1 1 1 1 1 0 0 0 0 0 0 0 0
1 1 1 1 1 1 0 0 0 0 1 1 1 1 1 1 1 1 1 1 1 1 0 0 1 1 1 1 1 1 1 1 1 1 1 1 1 1 1 0 0 0 0
1 1 1 1 1 1 0 0 0 0 1 1 1 1 1 1 1 1 1 1 1 1 1 0 0 0 0 0 1 1 1 1 0 0 1 1 1 0 1 0 0 0 0
1 1 1 1 1 1 0 0 0 0 1 1 1 1 1 1 0 0 1 1 1 1 1 0 0 0 0 0 0 1 1 1 0 0 1 1 0 0 0 0 0 0 0
Wind_Speed
2 3 2 2 3 3 4 3 3 4 3 4 3 4 4 3 3 2 4 9 8 7 8 9 9 9 9 9 9 8 8 8 8 8 8 8 8 8 8 8 8 8 7
2 2 3 2 2 3 3 3 4 4 3 3 4 4 3 3 3 3 3 7 9 9 9 9 9 9 9 9 9 9 9 9 8 8 8 8 7 7 8 8 8 7 7
2 2 2 2 2 3 3 3 4 3 3 3 4 3 3 3 3 3 3 3 6 9 9 9 9 9 9 9 10 9 9 9 9 8 8 8 8 7 7 7 7 7 6
2 2 2 2 2 2 2 3 3 3 2 2 3 2 2 3 3 3 3 3 3 4 8 10 9 9 9 9 9 9 9 9 9 9 9 9 9 8 8 7 7 7 6
2 2 1 2 2 2 2 2 3 2 2 2 2 2 2 2 3 4 3 3 4 4 3 8 10 9 9 9 9 9 9 8 8 9 9 9 9 8 8 7 7 7 7
2 1 2 2 1 2 2 2 2 1 1 1 1 2 1 1 2 2 3 3 3 4 4 5 6 8 10 9 8 9 8 8 8 8 8 9 9 8 8 8 8 8 7
3 1 1 3 1 2 2 2 2 3 2 1 1 1 1 2 2 2 3 3 4 4 4 4 4 3 5 10 9 9 9 9 8 8 8 8 8 8 9 9 9 8 8
2 2 2 2 2 1 2 2 1 1 1 1 1 1 2 2 2 3 3 3 3 3 4 5 4 4 4 4 6 9 9 9 9 8 8 8 8 9 10 10 9 9 8
2 1 1 1 1 2 2 2 2 2 1 1 1 2 2 1 1 2 3 2 2 3 4 4 5 5 5 4 4 8 9 8 8 8 7 7 8 8 9 9 9 9 9
2 2 2 1 1 1 1 2 2 1 2 2 1 2 2 2 2 1 3 3 3 4 4 3 4 4 5 4 4 3 6 7 7 7 8 8 8 9 9 9 9 9 9
2 2 2 1 1 1 1 0 0 2 1 2 2 2 2 2 3 3 2 1 2 3 3 4 3 3 4 4 3 4 7 6 6 7 7 8 8 9 9 10 10 9 9
2 2 2 2 2 1 1 2 2 2 2 2 2 2 2 2 2 2 2 3 2 2 2 2 3 3 4 4 4 5 6 5 5 6 7 7 8 8 9 9 9 9 9
3 3 3 3 2 2 2 2 2 2 3 3 4 3 3 3 3 3 3 3 3 2 2 3 3 3 3 3 3 6 6 6 5 6 6 7 7 8 8 9 9 9 9
2 2 3 3 4 4 4 3 3 3 3 3 4 4 3 3 3 3 3 3 3 3 2 2 2 3 2 3 2 6 5 7 6 6 6 6 7 7 8 7 8 8 8
2 3 4 4 4 4 4 4 3 3 3 4 4 4 4 3 3 3 3 4 4 4 3 2 3 2 3 2 3 4 4 6 7 6 6 6 7 7 7 7 8 7 7
3 3 4 4 4 4 4 4 4 4 4 4 3 3 3 3 3 3 3 4 4 5 4 2 2 2 2 3 4 4 4 6 8 8 7 7 7 7 7 7 7 7 7
4 4 4 4 4 4 4 4 4 4 5 4 4 4 4 4 3 3 4 4 4 4 5 4 3 2 3 5 3 4 5 6 5 9 8 8 7 7 7 7 7 7 7
4 4 4 4 4 4 4 5 5 5 5 5 5 5 5 4 4 5 4 4 4 4 5 5 4 3 4 5 4 6 5 5 5 8 10 9 9 8 8 8 8 7 7
4 4 4 5 5 4 4 5 5 5 5 5 6 6 6 5 6 4 5 5 4 5 5 6 5 3 4 4 5 5 6 5 6 6 10 11 10 10 9 9 9 9 8
4 4 4 4 5 5 5 5 5 5 5 6 5 5 6 6 6 6 5 5 5 5 5 6 6 5 4 4 5 5 5 4 5 5 4 6 8 11 11 10 10 9 9
5 4 4 4 4 5 4 4 4 5 5 5 5 5 5 5 4 5 5 5 5 5 5 6 5 5 4 4 4 4 5 4 4 4 4 5 5 6 7 10 10 9 9
4 4 4 4 4 3 0 1 4 3 4 4 5 5 5 5 5 5 5 5 6 6 6 6 5 5 5 5 4 5 5 5 5 3 4 5 4 5 5 5 7 9 10
4 4 4 3 3 2 0 1 2 4 4 4 5 5 5 3 5 5 6 7 7 7 7 7 7 6 6 5 5 6 5 6 6 4 4 6 4 5 5 4 8 9 10
3 3 3 3 3 2 2 2 3 4 4 4 5 5 5 5 4 5 6 5 5 5 6 7 6 6 6 5 6 7 6 7 7 5 4 6 5 5 5 4 8 10 9
3 3 3 3 3 2 2 3 3 3 3 4 5 4 4 4 2 4 6 6 6 5 5 5 6 6 5 6 6 6 5 6 6 5 3 5 5 5 5 6 6 11 10
2 2 1 2 2 1 1 2 3 4 3 3 3 4 2 3 3 4 6 6 7 6 5 5 7 8 8 8 8 7 6 6 6 6 2 4 5 5 5 5 4 5 7
Wind_Direction
137 139 132 140 157 146 156 162 160 154 155 151 158 159 158 152 160 175 147 163 179 192 206 202 197 199 198 199 197 198 203 204 203 204 207 211 211 209 210 213 212 209 210
138 148 147 145 144 148 143 153 151 157 157 150 162 161 165 166 169 184 180 167 183 196 205 206 205 205 203 204 204 205 207 207 205 205 205 207 210 212 213 214 210 211 209
143 152 145 148 139 145 149 156 151 152 156 156 159 166 173 182 180 187 201 193 179 187 198 203 206 207 204 204 203 203 206 208 205 203 205 206 208 211 212 211 208 205 206
156 169 153 140 144 156 161 155 167 153 152 161 154 161 163 174 186 194 200 195 195 187 187 197 205 207 208 208 208 207 208 210 209 210 210 210 211 212 213 212 208 205 206
150 166 134 117 162 159 168 177 128 168 156 152 161 158 180 189 189 187 193 200 195 207 202 180 194 203 207 208 209 211 211 210 210 214 216 215 215 214 213 208 205 208 209
130 146 150 131 168 153 146 135 130 150 174 171 162 123 183 201 202 185 206 197 201 208 210 200 195 195 201 209 211 213 212 212 209 210 216 219 219 215 212 211 211 214 212
119 137 127 127 169 150 154 155 154 159 174 154 177 181 188 207 202 203 215 207 201 205 208 212 221 218 191 195 206 210 210 211 210 209 212 217 219 216 212 211 211 213 214
143 148 136 167 163 148 162 163 174 228 194 191 241 229 216 190 199 201 201 206 213 205 204 209 212 211 227 204 178 197 205 210 211 210 211 217 221 217 214 211 211 213 215
148 110 135 151 156 192 168 182 196 207 228 224 252 272 278 253 185 171 203 207 207 210 213 208 211 210 213 217 197 189 199 206 211 215 216 219 219 213 210 210 213 216 219
155 149 149 155 177 194 162 207 184 205 217 216 197 248 280 309 274 208 194 186 209 213 220 220 211 205 210 212 198 186 188 201 212 221 224 227 225 213 208 210 215 220 220
162 168 155 163 175 202 175 230 216 242 226 239 225 210 224 233 247 254 234 229 213 208 206 214 219 217 213 217 214 185 179 197 211 221 229 232 229 215 211 214 219 222 223
167 175 178 179 190 204 191 209 214 213 242 253 266 251 242 247 243 249 245 246 240 221 213 215 219 216 217 216 205 154 176 197 212 222 231 236 230 221 216 218 222 224 227
181 177 187 191 200 207 212 217 217 243 234 235 244 251 257 261 266 263 261 259 257 238 215 213 211 216 216 210 184 169 185 199 214 222 229 233 229 225 221 221 224 227 230
196 173 192 198 205 211 211 206 218 220 227 237 247 253 253 254 251 237 246 259 260 254 226 227 210 214 224 223 164 200 196 190 207 218 225 229 229 227 222 221 225 229 233
200 191 199 205 211 214 218 221 228 230 228 236 241 232 240 246 245 246 244 255 265 268 265 233 221 200 216 219 175 222 223 184 200 210 221 226 227 224 223 223 225 227 230
217 217 215 215 218 218 218 228 234 234 235 238 248 258 255 250 250 246 243 243 253 266 276 280 260 241 240 240 191 236 234 187 199 207 217 222 223 221 223 225 226 225 227
215 219 221 217 220 224 224 228 235 239 239 242 244 238 240 256 255 247 240 241 242 249 257 264 261 243 235 253 238 245 239 236 206 194 208 218 222 224 225 226 227 226 225
221 220 226 226 229 232 231 231 235 234 237 242 247 246 243 236 235 255 256 250 249 250 255 263 261 249 237 241 243 251 252 247 243 185 197 211 218 221 224 225 224 221 219
227 228 226 230 235 241 242 240 237 237 237 242 244 245 246 243 242 243 249 253 250 245 245 255 257 256 252 248 248 247 248 250 252 203 193 202 210 217 221 222 221 218 216
225 227 230 236 238 240 242 244 236 239 242 242 240 243 246 245 243 244 242 247 255 258 249 252 254 251 248 243 248 253 248 235 250 243 220 215 206 210 216 216 216 214 214
231 230 234 238 240 239 242 246 245 238 239 243 244 242 243 252 268 264 265 255 252 253 257 258 258 257 256 254 254 257 261 257 242 246 249 236 218 224 214 209 211 211 215
243 238 238 242 246 250 81 279 268 257 249 249 254 253 241 230 235 236 256 274 277 262 263 266 263 266 267 268 274 268 270 268 264 235 256 255 244 245 237 226 193 199 211
243 241 242 241 243 251 105 238 268 263 255 256 257 259 260 247 238 241 226 226 237 246 251 261 265 264 266 270 274 269 268 273 274 271 258 260 246 250 252 224 181 194 205
238 234 235 234 236 226 182 215 245 248 259 261 261 261 262 264 265 265 256 246 244 239 238 242 258 265 269 275 263 263 267 262 258 250 250 264 259 258 262 246 185 192 204
245 243 231 230 232 219 186 212 238 246 249 254 257 260 263 266 300 291 264 255 254 251 230 222 239 249 262 262 263 266 262 262 265 257 236 263 271 268 263 252 204 192 206
245 246 227 229 229 223 160 210 253 255 258 258 249 247 244 274 291 277 258 257 257 259 260 235 228 233 237 233 228 244 260 263 271 269 244 259 267 272 268 250 240 221 219